TimeEST,TemperatureF,Dew PointF,Humidity,Sea Level PressureIn,VisibilityMPH,Wind Direction,Wind SpeedMPH,Gust SpeedMPH,PrecipitationIn,Events,Conditions,WindDirDegrees,DateUTC
12:20 AM,26.6,23.0,86,30.04,10.0,North,4.6,-,N/A,,Overcast,350,2013-01-02 05:20:00
12:28 AM,26.6,21.2,80,30.05,10.0,North,6.9,-,N/A,,Overcast,350,2013-01-02 05:28:00
12:36 AM,26.6,21.2,80,30.05,10.0,NNW,4.6,-,N/A,,Overcast,340,2013-01-02 05:36:00
12:53 AM,27.0,21.9,81,30.09,10.0,WNW,3.5,-,N/A,,Overcast,300,2013-01-02 05:53:00
1:13 AM,26.6,21.2,80,30.03,10.0,NNW,4.6,-,N/A,,Overcast,330,2013-01-02 06:13:00
1:53 AM,27.0,21.9,81,30.08,10.0,NNW,3.5,-,N/A,,Overcast,330,2013-01-02 06:53:00
2:15 AM,26.6,21.2,80,30.05,10.0,Calm,Calm,-,N/A,,Overcast,0,2013-01-02 07:15:00
2:53 AM,26.1,21.0,81,30.10,10.0,Calm,Calm,-,N/A,,Overcast,0,2013-01-02 07:53:00
3:17 AM,26.6,21.2,80,30.06,10.0,NNW,4.6,-,N/A,,Overcast,330,2013-01-02 08:17:00
3:43 AM,26.6,21.2,80,30.06,10.0,Calm,Calm,-,N/A,,Overcast,0,2013-01-02 08:43:00
3:53 AM,25.0,21.0,85,30.10,10.0,NW,3.5,-,N/A,,Overcast,320,2013-01-02 08:53:00
4:10 AM,24.8,19.4,80,30.06,10.0,NNW,4.6,-,N/A,,Overcast,330,2013-01-02 09:10:00
4:53 AM,25.0,19.9,81,30.11,10.0,NW,4.6,-,N/A,,Overcast,320,2013-01-02 09:53:00
5:53 AM,24.1,19.0,81,30.13,10.0,NW,3.5,-,N/A,,Overcast,320,2013-01-02 10:53:00
6:02 AM,24.8,19.4,80,30.09,10.0,NW,3.5,-,N/A,,Overcast,320,2013-01-02 11:02:00
7:53 AM,24.1,17.1,75,30.18,10.0,WNW,3.5,-,N/A,,Overcast,300,2013-01-02 12:53:00
8:53 AM,23.0,15.1,72,30.20,10.0,Calm,Calm,-,N/A,,Scattered Clouds,0,2013-01-02 13:53:00
9:38 AM,24.8,14.0,64,30.17,10.0,West,5.8,-,N/A,,Mostly Cloudy,280,2013-01-02 14:38:00
10:53 AM,25.0,12.9,60,30.22,8.0,Variable,3.5,-,N/A,,Overcast,0,2013-01-02 15:53:00
11:53 AM,27.0,14.0,58,30.21,10.0,West,5.8,-,N/A,,Mostly Cloudy,270,2013-01-02 16:53:00
12:07 PM,26.6,14.0,59,30.16,10.0,Variable,3.5,-,N/A,,Scattered Clouds,0,2013-01-02 17:07:00
12:53 PM,28.0,14.0,56,30.19,10.0,WNW,3.5,-,N/A,,Partly Cloudy,290,2013-01-02 17:53:00
1:53 PM,28.0,14.0,56,30.19,10.0,Variable,3.5,-,N/A,,Partly Cloudy,0,2013-01-02 18:53:00
2:53 PM,28.9,14.0,54,30.19,10.0,West,5.8,-,N/A,,Clear,280,2013-01-02 19:53:00
3:53 PM,28.9,14.0,54,30.20,10.0,West,3.5,-,N/A,,Clear,280,2013-01-02 20:53:00
4:53 PM,28.0,14.0,56,30.20,10.0,Calm,Calm,-,N/A,,Clear,0,2013-01-02 21:53:00
5:53 PM,27.0,15.1,61,30.22,10.0,Calm,Calm,-,N/A,,Clear,0,2013-01-02 22:53:00
6:53 PM,27.0,15.1,61,30.22,10.0,Calm,Calm,-,N/A,,Clear,0,2013-01-02 23:53:00
7:53 PM,24.1,18.0,77,30.23,10.0,Calm,Calm,-,N/A,,Clear,0,2013-01-03 00:53:00
8:53 PM,24.1,18.0,77,30.25,10.0,Calm,Calm,-,N/A,,Clear,0,2013-01-03 01:53:00
9:53 PM,23.0,18.0,81,30.26,10.0,Calm,Calm,-,N/A,,Clear,0,2013-01-03 02:53:00
10:53 PM,23.0,17.1,78,30.26,10.0,Calm,Calm,-,N/A,,Clear,0,2013-01-03 03:53:00
11:53 PM,21.9,17.1,82,30.25,10.0,Calm,Calm,-,N/A,,Clear,0,2013-01-03 04:53:00